STARLINK BG

Last updated on June 19, 2020, 12:02 a.m. UTC

1 45784U 20038BG  20170.75001157  .00114571  11276-4  14179-3 0  9992
2 45784  52.9995 271.8059 0111207  69.4722 148.5897 15.96219868  1955

Satellite is not in orbit.